Weather observations for the past three days for
Bakersfield, Meadows Field Airport
Metric (Imperial)
Date Time (pdt) Wind (kph) Vis. (km) Weather Sky Cond. Temperature (ºC) Relative Humidity Wind Chill (°C) Heat Index (°C) Pressure Precipitation (cm)
Air Dwpt 6 hour altimeter (cm) sea level (mb) 1 hr 3 hr 6 hr
Max. Min.
01 11:54 W 7 16.09 Fair CLR 22.2 10.6 48% 76.2 1015.3
01 10:54 Calm 16.09 Fair CLR 21.1 10 21.7 13.9 49% 76.2 1015.4
01 09:54 NW 13 16.09 Fair CLR 20 10.6 55% 76.2 1015.5
01 08:54 NW 17 14.48 Fair CLR 17.8 10 60% 76.23 1015.5
01 07:54 NW 11 14.48 Fair CLR 16.7 8.3 58% 76.2 1015.3
01 06:54 NW 9 16.09 Fair CLR 13.9 7.2 64% 76.12 1014.3
01 05:54 NW 11 16.09 Fair CLR 15 7.8 62% 76.07 1013.7
01 04:54 NW 11 16.09 Fair CLR 15.6 7.2 22.2 15.6 58% 76.02 1012.9
01 03:54 N 11 16.09 Fair CLR 16.7 7.2 54% 76.02 1012.7
01 02:54 NW 9 16.09 Fair CLR 17.2 5.6 47% 75.97 1012.3
01 01:54 NW 13 16.09 Fair CLR 17.8 3.9 40% 75.95 1012.0
01 00:54 N 9 16.09 Fair CLR 19.4 -0.6 26% 75.95 1011.7
31 23:54 W 11 16.09 Fair CLR 21.1 1.1 27% 75.92 1011.5
31 22:54 N 7 16.09 Fair CLR 22.2 4.4 34.4 22.2 31% 75.92 1011.4
31 21:54 N 19 16.09 Fair CLR 25 4.4 26% 25 75.82 1010.2
31 20:54 N 15 16.09 Fair CLR 25 5 28% 25 75.77 1009.5
31 19:54 NW 20 16.09 Fair CLR 27.2 5 24% 26 75.69 1008.6
31 18:54 NW 19 16.09 Fair CLR 30.6 6.7 22% 29 75.64 1007.9
31 17:54 NW 20 16.09 Fair CLR 33.9 3.9 15% 32 75.64 1007.7
31 16:54 NW 24 16.09 Fair CLR 33.9 5.6 35 27.8 17% 32 75.67 1007.9
31 15:54 NW 20 16.09 Fair CLR 34.4 5.6 17% 32 75.67 1008.1
31 14:54 W 24 16.09 Fair CLR 34.4 3.9 15% 32 75.74 1008.9
31 13:54 NW 19 G 31 16.09 Fair CLR 33.3 6.1 18% 31 75.79 1009.6
31 12:54 NW 15 16.09 Fair CLR 31.7 7.8 23% 30 75.84 1010.2
31 11:54 NW 9 16.09 Fair CLR 30 8.3 26% 28 75.87 1011.0
31 10:54 W 9 16.09 Fair CLR 28.3 8.9 28.3 18.9 30% 27 75.92 1011.3
31 09:54 Vrbl 6 16.09 Fair CLR 26.1 8.3 32% 26 75.92 1011.5
31 08:54 SW 6 16.09 Fair CLR 23.9 7.2 34% 25 75.92 1011.5
31 07:54 Calm 16.09 Fair CLR 22.2 5.6 34% 75.92 1011.6
31 06:54 NE 6 14.48 Fair CLR 19.4 3.9 36% 75.87 1010.8
31 05:54 Calm 16.09 Fair CLR 21.1 4.4 34% 75.84 1010.4
31 04:54 Calm 16.09 Fair CLR 21.7 3.9 26.7 21.1 31% 75.82 1010.1
31 03:54 NE 7 16.09 Fair CLR 22.2 3.3 29% 75.84 1010.2
31 02:54 N 9 16.09 A Few Clouds FEW110 22.8 2.8 27% 75.82 1010.0
31 01:54 N 11 16.09 Fair CLR 21.7 1.7 27% 75.79 1009.8
31 00:54 NW 11 16.09 Fair CLR 23.3 1.1 23% 75.79 1009.9
30 23:54 NW 6 16.09 Fair CLR 24.4 1.7 23% 25 75.79 1009.7
30 22:54 N 15 16.09 Fair CLR 26.7 2.2 35 26.1 20% 26 75.77 1009.5
30 21:54 NW 15 16.09 Fair CLR 26.7 8.9 33% 26 75.77 1009.4
30 20:54 N 9 16.09 Fair CLR 30 8.9 27% 29 75.72 1008.6
30 19:54 N 11 16.09 Fair CLR 29.4 8.9 28% 28 75.67 1008.0
30 18:54 NW 11 16.09 Fair CLR 31.7 8.9 24% 30 75.67 1008.0
30 17:54 NW 19 16.09 Fair CLR 33.9 7.8 20% 32 75.67 1008.1
30 16:54 W 22 16.09 Fair CLR 35 7.8 35 27.2 19% 33 75.69 1008.2
30 15:54 NW 15 16.09 Fair CLR 33.9 8.3 21% 32 75.69 1008.6
30 14:54 W 11 16.09 Fair CLR 33.3 8.9 22% 31 75.77 1009.4
30 13:54 W 15 16.09 Fair CLR 32.2 8.9 24% 30 75.84 1010.2
30 12:54 NW 11 16.09 Fair CLR 30.6 8.3 25% 29 75.87 1010.9
30 11:54 W 11 16.09 Fair CLR 29.4 9.4 29% 28 75.92 1011.4
30 10:54 Calm 16.09 Fair CLR 27.2 9.4 27.2 19.4 33% 27 75.97 1012.1
30 09:54 SW 7 16.09 Fair CLR 25 9.4 37% 26 75.97 1012.3
30 08:54 SE 7 16.09 Fair CLR 23.3 10 43% 76 1012.5
30 07:54 SE 11 16.09 Fair CLR 21.1 10 49% 76 1012.5
30 06:54 E 7 14.48 Fair CLR 20.6 11.7 57% 75.97 1012.2
30 05:54 NE 6 16.09 Fair CLR 20.6 11.1 55% 75.92 1011.6
30 04:54 Calm 16.09 Fair CLR 20 11.7 27.8 19.4 59% 75.9 1011.3
30 03:54 NW 9 16.09 Fair CLR 20.6 11.1 55% 75.9 1011.2
30 02:54 SW 6 16.09 Fair CLR 21.7 11.1 51% 75.87 1010.9
30 01:54 NW 9 16.09 Fair CLR 23.9 10.6 43% 25 75.84 1010.4
30 00:54 N 9 16.09 Fair CLR 25 12.8 47% 26 75.84 1010.6
29 23:54 SE 7 16.09 Fair CLR 26.1 12.2 42% 26 75.84 1010.3
29 22:54 Calm 16.09 Fair CLR 27.8 11.7 33.3 27.2 37% 27 75.82 1010.2
29 21:54 N 6 14.48 Fair CLR 28.3 12.2 37% 28 75.84 1010.3
29 20:54 Calm 16.09 Fair CLR 28.9 11.7 34% 28 75.82 1010.0
29 19:54 N 6 16.09 Fair CLR 30.6 12.8 34% 30 75.77 1009.4
29 18:54 Calm 16.09 Fair CLR 31.7 12.8 31% 31 75.77 1009.5
29 17:54 Vrbl 7 16.09 Fair CLR 32.8 12.8 30% 32 75.79 1009.8
29 16:54 N 9 16.09 Fair CLR 33.3 12.2 33.3 28.3 28% 32 75.82 1010.0
29 15:54 W 11 16.09 Fair CLR 32.8 12.2 28% 32 75.84 1010.5
29 14:54 SW 6 16.09 Fair CLR 31.7 11.1 28% 30 75.92 1011.5
29 13:54 Calm 16.09 Fair CLR 30 9.4 28% 29 76 1012.5
29 12:54 W 11 16.09 Fair CLR 29.4 8.9 28% 28 76.05 1013.3
Date Time (pdt) Wind (kph) Vis. (km) Weather Sky Cond. Air Dwpt Max. Min. Relative Humidity Wind Chill (°C) Heat Index (°C) altimeter (cm) sea level (mb) 1 hr 3 hr 6 hr
6 hour
Temperature (ºC) Pressure Precipitation (cm)